{"data":{"norad_id":67825,"epoch":"2026-09-19T08:01:17.259456Z","epoch_age_seconds":167218,"freshness":"FRESH","line1":"1 67825U 26033E   26262.33422754  .00012857  00000+0  47578-3 0  9996","line2":"2 67825  42.9981 253.0751 0001288 287.4513  72.6198 15.27588794 34292","mean_motion":15.27588794,"eccentricity":0.0001288,"inclination_deg":42.9981,"raan_deg":253.0751,"arg_perigee_deg":287.4513,"mean_anomaly_deg":72.6198,"bstar":0.00047578,"rev_number":3429,"period_min":94.266206040262,"perigee_km":482.13904638878,"apogee_km":483.90648114393,"semimajor_km":6861.1597637664,"source":"CELESTRAK","updated_at":"2026-09-20T09:00:43.667735Z"}}